{"data":{"norad_id":67519,"epoch":"2026-05-24T23:33:18.593280Z","epoch_age_seconds":76965,"freshness":"FRESH","line1":"1 67519U 26012AC  26144.98146520  .00023703  00000+0  86771-3 0  9997","line2":"2 67519  42.9994 243.1870 0001463 253.6911 106.3779 15.27594228 19438","mean_motion":15.27594228,"eccentricity":0.0001463,"inclination_deg":42.9994,"raan_deg":243.187,"arg_perigee_deg":253.6911,"mean_anomaly_deg":106.3779,"bstar":0.00086771,"rev_number":1943,"period_min":94.265870713934,"perigee_km":482.00270732686,"apogee_km":484.0102779128,"semimajor_km":6861.1434926198,"source":"CELESTRAK","updated_at":"2026-05-25T13:38:21.603702Z"}}